Location: American Medical Response
(33.3472°N, 96.5511°W)
Time: 05:13:27
(UTC+00:00)

SJ 16-02 - Pass Details

Date: 05 July 2022
Orbit: 604 x 615 km, 75.0° (Epoch: 07 August)

Event Time Altitude Azimuth Distance (km) Brightness Sun altitude
Rises 07:00:08 0° 332° (NNW) 2,888 5.5 -33.4°
Reaches altitude 10° 07:02:33 10° 322° (NW) 1,978 4.4 -33.4°
Enters shadow 07:03:14 14° 318° (NW) 1,745 4.0 -33.3°
